Camarillo, CA

10:58 PM PDT on March 25, 2017 (GMT -0700)
Camarillo

Weather History for KCMA - December, 2014

Change the Weather History Date:

Tuesday, December 2, 2014

  Actual Average Record
Temperature  
Mean Temperature 62 °F 55 °F  
Max Temperature 66 °F 67 °F 88 °F (1958)
Min Temperature 58 °F 43 °F 38 °F (1991)
Degree Days  
Heating Degree Days 3 10  
Month to date heating degree days 5 20  
Since 1 July heating degree days 92 352  
Cooling Degree Days 0 0  
Month to date cooling degree days 0 0  
Year to date cooling degree days 1009 330  
Growing Degree Days 10 (Base 50)    
Moisture  
Dew Point 54 °F    
Average Humidity 75    
Maximum Humidity 93    
Minimum Humidity 56    
Precipitation  
Precipitation 1.15 in 0.04 in 1.15 in (2014)
Month to date precipitation 1.15 0.07  
Year to date precipitation 6.20 13.23  
Since 1 July precipitation 2.01  
Sea Level Pressure  
Sea Level Pressure 29.94 in    
Wind  
Wind Speed 14 mph (ENE)    
Max Wind Speed 23 mph    
Max Gust Speed 28 mph    
Visibility 6 miles    
Events Rain    
T = Trace of Precipitation, MM = Missing Value Source: NWS Daily Summary

Daily Weather History Graph

Daily Weather History Graph

Search for Another Location

Airport or City:

Trip Planner

Search our weather history database for the weather conditions in past years. The results will help you decide how hot, cold, wet, or windy it might be!

Date:

Astronomy

Dec. 02, 2014 Rise Set
Actual Time 6:45 AM PST 4:46 PM PST
Civil Twilight 6:17 AM PST 5:13 PM PST
Nautical Twilight 5:46 AM PST 5:45 PM PST
Astronomical Twilight 5:16 AM PST 6:15 PM PST
Moon 2:22 PM PST (12/2) 2:43 AM PST (12/2)
Length of Visible Light 10h 56m
Length of Day
10h 01m
Waxing Gibbous, 85% of the Moon is Illuminated
Dec 2
Waxing Gibbous
Dec 6
Full
Dec 14
Last Quarter
Dec 21
New
Dec 28
First Quarter

Hourly Weather History & Observations

Time (PST) Temp. Dew Point Humidity Pressure Visibility Wind Dir Wind Speed Gust Speed Precip Events Conditions
12:55 AM 64.9 °F 50.0 °F 58% 29.98 in 10.0 mi East 13.8 mph - N/A   Scattered Clouds
1:55 AM 64.9 °F 48.9 °F 56% 29.95 in 10.0 mi ENE 12.7 mph - N/A   Mostly Cloudy
2:55 AM 64.0 °F 51.1 °F 63% 29.92 in 10.0 mi East 12.7 mph - 0.00 in   Overcast
3:55 AM 64.9 °F 48.9 °F 56% 29.91 in 10.0 mi East 6.9 mph - N/A   Mostly Cloudy
4:55 AM 64.0 °F 51.1 °F 63% 29.90 in 10.0 mi ENE 6.9 mph - 0.00 in   Overcast
5:55 AM 64.0 °F 50.0 °F 60% 29.91 in 10.0 mi NE 9.2 mph - 0.00 in   Overcast
6:55 AM 63.0 °F 52.0 °F 67% 29.94 in 10.0 mi East 12.7 mph - 0.02 in Rain Light Rain
7:24 AM 60.1 °F 53.1 °F 78% 29.92 in 2.5 mi ENE 13.8 mph - 0.09 in Rain Heavy Rain
7:34 AM 59.0 °F 54.0 °F 83% 29.92 in 3.0 mi ENE 12.7 mph - 0.13 in Rain Heavy Rain
7:55 AM 59.0 °F 54.0 °F 83% 29.95 in 2.5 mi ENE 10.4 mph - 0.16 in Rain Rain
8:29 AM 57.9 °F 54.0 °F 87% 29.93 in 3.0 mi NE 16.1 mph 20.7 mph 0.03 in Rain Light Rain
8:37 AM 57.9 °F 54.0 °F 87% 29.95 in 2.5 mi ENE 10.4 mph 20.7 mph 0.04 in Rain Light Rain
8:55 AM 57.9 °F 54.0 °F 87% 30.00 in 2.5 mi East 12.7 mph - 0.09 in Rain Rain
9:00 AM 57.9 °F 54.0 °F 87% 29.98 in 1.8 mi East 13.8 mph - 0.02 in Rain Heavy Rain
9:03 AM 57.9 °F 55.0 °F 90% 29.98 in 1.5 mi East 11.5 mph - 0.03 in Rain Heavy Rain
9:07 AM 57.9 °F 55.0 °F 90% 29.97 in 1.8 mi East 13.8 mph - 0.04 in Rain Rain
9:11 AM 57.9 °F 55.0 °F 90% 29.97 in 2.5 mi East 10.4 mph - 0.05 in Rain Rain
9:19 AM 57.9 °F 55.0 °F 90% 29.97 in 2.0 mi ENE 11.5 mph - 0.05 in Rain Light Rain
9:29 AM 57.9 °F 55.0 °F 90% 29.96 in 2.0 mi ENE 16.1 mph - 0.06 in Rain Light Rain
9:43 AM 57.9 °F 55.0 °F 90% 29.95 in 1.5 mi NE 17.3 mph - 0.12 in Rain Rain
9:55 AM 57.9 °F 55.0 °F 90% 29.99 in 1.5 mi NE 13.8 mph - 0.18 in Rain Heavy Rain
10:15 AM 57.9 °F 55.0 °F 90% 29.96 in 2.0 mi NE 13.8 mph - 0.09 in Rain Rain
10:55 AM 59.0 °F 54.0 °F 83% 29.98 in 2.0 mi NE 15.0 mph - 0.20 in Rain Rain
11:43 AM 59.0 °F 55.0 °F 87% 29.91 in 5.0 mi ENE 15.0 mph - 0.08 in Rain Light Rain
11:55 AM 57.9 °F 55.0 °F 90% 29.93 in 2.0 mi ENE 16.1 mph - 0.11 in Rain Heavy Rain
12:19 PM 59.0 °F 55.0 °F 87% 29.90 in 5.0 mi ENE 15.0 mph - 0.04 in Rain Light Rain
12:55 PM 59.0 °F 55.0 °F 87% 29.92 in 3.0 mi ENE 19.6 mph 23.0 mph 0.11 in Rain Rain
1:02 PM 59.0 °F 55.0 °F 87% 29.90 in 2.5 mi ENE 15.0 mph - 0.01 in Rain Rain
1:43 PM 59.0 °F 55.0 °F 87% 29.91 in 3.0 mi ENE 13.8 mph - 0.13 in Rain Rain
1:55 PM 59.0 °F 55.0 °F 87% 29.93 in 3.0 mi NE 13.8 mph - 0.15 in Rain Rain
2:53 PM 59.0 °F 55.4 °F 88% 29.88 in 2.5 mi ENE 17.3 mph - 0.10 in Rain Rain
2:55 PM 59.0 °F 55.0 °F 87% 29.91 in 2.5 mi ENE 16.1 mph - 0.11 in Rain Rain
3:07 PM 59.0 °F 55.0 °F 87% 29.89 in 4.0 mi ENE 16.1 mph 23.0 mph 0.01 in Rain Light Rain
3:55 PM 60.1 °F 55.9 °F 86% 29.91 in 10.0 mi ENE 16.1 mph - 0.02 in Rain Light Rain
4:55 PM 60.1 °F 55.0 °F 83% 29.91 in 10.0 mi ENE 18.4 mph - 0.00 in   Overcast
5:55 PM 60.1 °F 54.0 °F 80% 29.91 in 10.0 mi ENE 19.6 mph - 0.00 in   Overcast
6:55 PM 60.1 °F 55.0 °F 83% 29.94 in 9.0 mi ENE 16.1 mph 26.5 mph 0.00 in   Overcast
7:26 PM 60.1 °F 55.0 °F 83% 29.91 in 10.0 mi ENE 17.3 mph - N/A   Overcast
7:55 PM 60.1 °F 55.0 °F 83% 29.95 in 10.0 mi ENE 15.0 mph - N/A   Overcast
8:05 PM 60.1 °F 55.0 °F 83% 29.92 in 8.0 mi ENE 15.0 mph - 0.00 in Rain Light Rain
8:55 PM 60.1 °F 55.0 °F 83% 29.96 in 10.0 mi ENE 13.8 mph - 0.00 in   Overcast
9:55 PM 60.1 °F 55.0 °F 83% 29.96 in 10.0 mi ENE 15.0 mph - N/A   Overcast
10:55 PM 61.0 °F 55.0 °F 81% 29.96 in 9.0 mi NE 11.5 mph - 0.00 in Rain Light Rain
11:55 PM 61.0 °F 55.9 °F 83% 29.96 in 10.0 mi NE 12.7 mph - 0.00 in Rain Light Rain